Location: Geseke
(51.6397°N, 8.5105°E)
Time: 08:16:59
(UTC+02:00)

X-37B - Visible Passes

Search period start: 24 June 2021 00:00
Search period end: 04 July 2021 00:00
Orbit: 386 x 389 km, 45.0° (Epoch: 10 June)

Date Brightness Start Highest point End Pass type
(mag) Time Alt. Az. Time Alt. Az. Time Alt. Az.
24 Jun 2.3 00:08:52 10° SW 00:10:09 17° SSW 00:10:09 17° SSW visible
24 Jun 2.1 23:10:56 10° SSW 23:13:16 19° SSE 23:15:11 12° ESE visible
25 Jun 2.7 00:46:40 10° WSW 00:47:30 15° SW 00:47:30 15° SW visible
25 Jun 1.7 23:48:29 10° SW 23:51:08 24° S 23:51:53 22° SSE visible
26 Jun 1.9 22:50:24 10° SW 22:52:57 22° S 22:55:31 10° ESE visible
27 Jun 2.1 00:26:29 10° WSW 00:28:18 20° SSW 00:28:18 20° SSW visible
27 Jun 1.8 23:28:12 10° WSW 23:30:52 24° S 23:32:17 18° SE visible
29 Jun 2.2 00:06:24 10° WSW 00:08:29 19° SSW 00:08:29 19° SSW visible
29 Jun 2.0 23:08:01 10° WSW 23:10:34 22° S 23:12:24 14° SE visible
30 Jun 2.6 23:46:31 10° WSW 23:48:23 15° SSW 23:48:33 15° SSW visible
01 Jul 2.3 22:47:56 10° WSW 22:50:16 19° SSW 22:52:27 11° SSE visible
02 Jul 3.0 23:27:19 10° SW 23:28:00 10° SSW 23:28:38 10° SSW visible
